Location: Olda
(45.8833°N, 9.5500°E)
Time: 06:38:20
(UTC+00:00)

CZ-4 R/B - Pass Details

Date: 03 March 2021
Orbit: 532 x 597 km, 97.7° (Epoch: 10 April)

Event Time Altitude Azimuth Distance (km) Brightness Sun altitude
Rises 18:01:57 0° 170° (S) 2,666 4.7 -9.6°
Reaches altitude 10° 18:04:03 10° 172° (S) 1,783 3.8 -10.0°
Maximum altitude 18:07:53 73° 258° (WSW) 568 1.5 -10.6°
Drops below altitude 10° 18:11:48 10° 343° (NNW) 1,820 4.2 -11.3°
Sets 18:13:58 0° 346° (NNW) 2,728 5.1 -11.7°
